Mason City, IA

2:57 AM CDT on June 25, 2017 (GMT -0500)
Mason City Municipal

Weather History for KMCW - October, 2011

Change the Weather History Date:

Wednesday, October 5, 2011

  Actual Average Record
Temperature  
Mean Temperature 66 °F 52 °F  
Max Temperature 85 °F 65 °F 95 °F (1963)
Min Temperature 46 °F 40 °F 22 °F (1935)
Degree Days  
Heating Degree Days 0 13  
Month to date heating degree days 41 61  
Since 1 July heating degree days 264 274  
Cooling Degree Days 1 0  
Month to date cooling degree days 1 2  
Year to date cooling degree days 775 612  
Growing Degree Days 14 (Base 50)    
Moisture  
Dew Point 42 °F    
Average Humidity 57    
Maximum Humidity 92    
Minimum Humidity 22    
Precipitation  
Precipitation 0.00 in 0.08 in 0.98 in (1955)
Month to date precipitation 0.00 0.48  
Year to date precipitation 20.11 30.11  
Snow  
Snow 0.00 in 0.00 in 0.00 in (2002)
Month to date snowfall 0.0 0.0  
Since 1 July snowfall 0.0 0.0  
Since 1 September snowfall 0.0 0.0  
Snow Depth 0.00 in    
Sea Level Pressure  
Sea Level Pressure 30.11 in    
Wind  
Wind Speed 9 mph (SSE)    
Max Wind Speed 21 mph    
Max Gust Speed 25 mph    
Visibility 9 miles    
Events      
T = Trace of Precipitation, MM = Missing Value Source: NWS Daily Summary

Daily Weather History Graph

Daily Weather History Graph

Search for Another Location

Airport or City:

Trip Planner

Search our weather history database for the weather conditions in past years. The results will help you decide how hot, cold, wet, or windy it might be!

Date:

Astronomy

Oct. 05, 2011 Rise Set
Actual Time 7:14 AM CDT 6:47 PM CDT
Civil Twilight 6:46 AM CDT 7:16 PM CDT
Nautical Twilight 6:13 AM CDT 7:49 PM CDT
Astronomical Twilight 5:40 AM CDT 8:22 PM CDT
Moon 3:37 PM CDT (10/5) 12:52 AM CDT (10/5)
Length of Visible Light 12h 29m
Length of Day
11h 32m
Waxing Gibbous, 66% of the Moon is Illuminated
Oct 5
Waxing Gibbous
Oct 11
Full
Oct 19
Last Quarter
Oct 26
New
Nov 2
First Quarter

Hourly Weather History & Observations

Time (CDT) Temp. Dew Point Humidity Pressure Visibility Wind Dir Wind Speed Gust Speed Precip Events Conditions
12:53 AM 57.9 °F 39.9 °F 51% 30.10 in 10.0 mi SSE 6.9 mph - N/A   Clear
1:53 AM 54.0 °F 39.9 °F 59% 30.10 in 10.0 mi South 5.8 mph - N/A   Clear
2:53 AM 53.1 °F 41.0 °F 64% 30.10 in 10.0 mi South 5.8 mph - N/A   Clear
3:53 AM 53.1 °F 42.1 °F 66% 30.10 in 10.0 mi South 5.8 mph - N/A   Clear
4:53 AM 50.0 °F 41.0 °F 71% 30.12 in 10.0 mi SSE 4.6 mph - N/A   Clear
5:53 AM 48.0 °F 41.0 °F 77% 30.12 in 10.0 mi South 3.5 mph - N/A   Clear
6:45 AM 44.6 °F 42.8 °F 93% 30.25 in 10.0 mi Calm Calm - N/A   Clear
6:53 AM 46.9 °F 39.9 °F 77% 30.13 in 10.0 mi SSE 3.5 mph - N/A   Clear
7:21 AM 46.4 °F 39.2 °F 76% 30.16 in 1.8 mi Calm Calm - N/A   Haze
7:32 AM 48.2 °F 41.0 °F 76% 30.16 in 3.0 mi SE 3.5 mph - N/A   Haze
7:53 AM 48.9 °F 42.1 °F 77% 30.15 in 10.0 mi Calm Calm - N/A   Clear
8:53 AM 59.0 °F 44.1 °F 58% 30.15 in 10.0 mi South 6.9 mph - N/A   Clear
9:53 AM 66.0 °F 45.0 °F 47% 30.15 in 10.0 mi South 8.1 mph - N/A   Clear
10:53 AM 73.0 °F 45.0 °F 37% 30.14 in 10.0 mi SSE 9.2 mph - N/A   Clear
11:53 AM 81.0 °F 42.1 °F 25% 30.12 in 10.0 mi South 11.5 mph - N/A   Clear
12:53 PM 82.9 °F 42.1 °F 24% 30.11 in 10.0 mi South 10.4 mph - N/A   Clear
1:53 PM 84.0 °F 42.1 °F 23% 30.09 in 10.0 mi South 17.3 mph 24.2 mph N/A   Clear
2:53 PM 84.0 °F 42.1 °F 23% 30.07 in 10.0 mi SSE 15.0 mph 25.3 mph N/A   Clear
3:53 PM 84.0 °F 41.0 °F 22% 30.05 in 10.0 mi SSE 17.3 mph 24.2 mph N/A   Clear
4:53 PM 82.4 °F 39.2 °F 21% 30.07 in 10.0 mi SSE 12.7 mph 23.0 mph N/A   Clear
5:53 PM 78.8 °F 42.8 °F 28% 30.07 in 10.0 mi SSE 15.0 mph 23.0 mph N/A   Clear
6:53 PM 73.0 °F 43.0 °F 34% 30.06 in 9.0 mi SSE 10.4 mph - N/A   Clear
7:53 PM 69.8 °F 42.8 °F 38% 30.08 in 10.0 mi SE 8.1 mph - N/A   Clear
8:53 PM 64.0 °F 44.1 °F 48% 30.07 in 9.0 mi SSE 10.4 mph - N/A   Clear
9:53 PM 63.0 °F 44.1 °F 50% 30.07 in 10.0 mi SSE 9.2 mph - N/A   Clear
10:53 PM 60.1 °F 43.0 °F 53% 30.08 in 10.0 mi SSE 9.2 mph - N/A   Clear
11:53 PM 55.9 °F 43.0 °F 62% 30.08 in 10.0 mi SE 5.8 mph - N/A   Clear